Temp_Advection
nan nan nan nan nan nan nan nan nan nan nan nan nan nan nan nan nan nan nan nan nan nan nan nan nan nan nan nan nan nan nan nan nan nan nan nan nan nan nan nan nan nan nan nan
nan -0 -0 -0 0 -0 0 0 0 -0 -0 -0 -0 -0 -0 0 0 0 0 0 0 0 -0 -0 0 0 0 0 -0 -0 0 0 -0 -0 0 0 0 -0 1 1 -0 -1 -1 nan
nan -0 -0 0 0 -0 0 -0 0 0 0 0 0 -0 -0 0 0 0 0 0 0 -0 0 -0 0 0 0 -0 0 0 0 0 -0 -1 -0 0 0 0 1 -0 -1 -1 -1 nan
nan -0 0 0 0 0 -0 -0 0 0 0 -0 0 -0 -0 -0 0 0 0 0 0 -0 -0 -0 -0 -0 0 -0 -0 -0 0 0 -0 -0 0 1 0 0 0 -0 -1 -1 -2 nan
nan 0 0 0 -0 -0 -0 0 -0 0 0 0 0 -0 0 -0 0 0 0 0 0 0 0 -0 -0 -0 -0 -0 -0 0 0 0 0 -0 -1 0 1 -0 0 -0 -1 -1 -0 nan
nan -0 0 -0 -0 -0 -0 -0 -0 -0 0 0 0 -0 0 0 -0 -0 0 0 0 0 0 -0 0 0 0 0 0 0 0 0 -0 -1 -0 1 0 0 0 -0 -1 -0 -1 nan
nan 0 0 -0 -0 -0 0 -0 -0 -0 0 0 0 -0 0 0 0 -0 -0 0 0 0 0 0 0 0 0 -1 -0 0 -0 -0 -0 -0 -1 -0 0 0 -0 -0 -1 -1 -1 nan
nan 0 0 0 0 0 0 0 0 -0 0 -0 -0 -0 0 -0 0 0 -0 0 0 0 0 -0 -0 -0 -0 -0 0 0 0 0 -0 -0 -0 -1 0 0 0 -0 0 0 0 nan
nan -0 -0 0 0 0 -0 -0 -0 -0 -0 -0 0 -0 0 -0 0 0 0 0 -0 0 -0 -0 -0 -0 -0 -0 -0 -0 0 0 0 -0 -0 -0 -0 0 0 -0 0 -0 -0 nan
nan -1 -0 -0 0 0 -0 -0 -0 -0 -0 -1 0 0 0 0 -0 -0 -0 0 0 -0 -0 0 -0 -0 -0 -0 -0 -0 -0 -0 -0 -0 -0 -0 0 0 -0 0 -0 -1 -0 nan
nan -0 -1 -1 -1 -0 -0 -0 -0 -0 -0 -1 -0 0 0 0 0 -0 -0 -0 -0 -0 -0 -0 -0 -0 -0 -0 -0 -0 -0 -0 -0 -0 -0 -0 0 -0 -0 -0 0 -0 -0 nan
nan 0 -1 -1 -1 -1 -0 -0 -0 -0 -1 -1 -0 -0 -0 -0 0 0 -0 0 -0 -0 -0 0 -0 -0 0 -0 0 -0 -0 -0 -0 -0 -0 0 0 -0 0 0 -0 -0 0 nan
nan 0 -0 -0 -0 -0 -0 -0 -0 -0 -0 -1 -0 -0 0 -0 0 0 -0 0 0 0 0 0 -0 -0 -0 -0 0 0 0 0 -0 -0 0 0 0 0 0 0 0 0 0 nan
nan 0 -0 -0 0 -0 -0 -0 -0 -0 -0 -0 -0 -0 -0 -0 0 0 0 0 0 0 0 -0 -0 -0 -0 0 -0 -0 0 -0 -0 -0 -0 0 0 0 -0 -0 -0 -0 0 nan
nan 0 -0 -0 -0 -0 -1 -1 -0 0 -0 -0 -0 -0 -0 0 0 0 0 0 0 0 -0 -0 -0 0 0 -0 -0 -0 -0 -0 -0 0 -0 0 -0 -0 -0 -0 -0 0 -0 nan
nan 0 0 -0 -0 -0 -0 -0 0 0 -0 -0 -0 -0 0 0 0 0 0 0 0 -0 -0 -0 -0 0 -0 -0 -0 -0 0 0 -0 -0 0 0 0 -0 -0 -0 -1 0 1 nan
nan 0 0 0 -0 -0 -0 -0 0 -0 -0 -0 -0 -0 -0 0 0 0 0 -0 -0 -0 -0 -0 -0 -0 0 -0 -1 -0 0 0 0 1 0 0 -0 0 0 -0 -1 -0 0 nan
nan 1 -0 0 0 -0 -0 -0 -0 -0 -0 -0 -0 -0 -0 0 -0 -0 -0 -0 -0 -0 -0 -0 0 -0 -0 -0 -1 0 0 0 0 0 0 0 0 -0 0 0 -0 -0 -0 nan
nan 0 0 -0 -0 -0 -0 -0 -0 -0 -0 -0 0 0 -0 -0 -0 -0 -0 -0 -0 0 -0 0 -0 -0 -0 -1 -0 0 0 0 0 1 1 0 1 0 0 0 0 -0 -1 nan
nan 0 -0 -0 0 -0 -0 -0 -0 -0 -0 -0 -0 0 -0 0 -0 -0 -0 0 -0 -0 0 0 -0 -0 -2 -0 -0 -0 0 0 1 -0 -0 -0 -1 -0 -0 0 0 0 -0 nan
nan -0 -0 0 0 0 -0 -0 -0 -0 -0 -0 -0 -0 0 0 0 0 0 0 -0 -0 -0 -0 -0 -0 0 -0 -0 -0 -0 0 0 -0 -1 -1 -0 -1 -1 -0 0 1 0 nan
nan -0 -0 0 -0 0 0 -0 -0 -0 0 0 0 0 0 0 0 0 0 0 -0 0 -0 -0 -0 -0 0 -0 -0 -0 -0 -0 0 0 0 0 1 0 -0 -1 -0 -0 0 nan
nan 0 -0 0 -0 0 0 -0 -0 -0 -0 -0 0 0 0 0 0 -0 0 -0 0 -0 -0 -0 -0 -0 -0 0 -0 -0 0 0 0 0 0 0 0 1 0 -0 -1 -0 -0 nan
nan 0 0 0 -0 -0 -0 -0 -0 -0 -0 -0 -0 -0 0 0 0 0 -0 0 0 -0 -0 -0 -0 -0 -0 0 0 0 0 1 1 0 0 0 1 1 1 1 0 0 -0 nan
nan -0 0 0 -0 0 -0 -0 -0 -0 -0 -0 -0 -0 0 -0 0 -0 0 0 -0 -0 0 0 -0 0 0 -0 0 -0 0 0 0 0 0 0 0 0 0 1 1 1 0 nan
nan 0 0 0 -0 -0 -0 -0 -0 -0 -0 -0 -0 -0 -0 0 -0 0 0 -0 -0 0 0 -1 -0 0 0 0 -0 0 0 0 0 1 1 1 0 1 0 1 1 1 1 nan
nan nan nan nan nan nan nan nan nan nan nan nan nan nan nan nan nan nan nan nan nan nan nan nan nan nan nan nan nan nan nan nan nan nan nan nan nan nan nan nan nan nan nan nan
Wind_Speed
32 31 32 31 30 31 31 15 1 14 13 3 3 2 3 6 7 0 4 9 10 14 14 11 10 9 5 9 13 11 12 5 7 15 13 13 16 16 19 7 8 6 10 20
33 32 31 30 32 29 35 5 1 8 12 2 3 6 3 3 4 2 3 4 3 5 9 6 9 5 3 11 12 12 11 4 4 4 2 6 9 18 20 12 8 17 10 17
31 33 30 30 35 32 10 2 2 5 2 3 8 10 4 4 6 5 8 7 5 6 5 1 7 7 4 12 15 7 11 6 7 10 14 6 7 13 17 16 10 17 20 29
30 32 29 30 36 30 14 1 3 2 3 5 8 4 4 9 4 3 5 3 3 5 4 5 4 6 2 4 9 9 7 6 11 20 22 21 23 23 17 20 26 16 26 21
28 31 29 28 32 30 16 8 4 5 5 9 11 3 4 5 5 4 4 3 7 6 4 5 5 5 6 5 10 11 6 5 3 13 20 22 22 21 17 20 25 26 26 28
27 29 28 27 27 31 12 21 11 2 4 4 6 4 5 5 6 4 5 5 5 7 7 7 11 10 6 3 5 12 5 1 3 8 13 19 8 7 12 8 19 22 20 26
25 26 28 27 24 24 21 15 10 5 2 2 4 5 3 9 6 4 4 3 2 2 5 4 7 11 10 13 14 11 5 3 3 7 11 4 6 6 10 12 17 19 23 23
24 24 25 26 23 22 16 22 9 6 2 5 7 4 5 5 6 2 3 4 4 6 2 2 3 2 3 8 13 16 15 8 3 3 4 10 4 5 4 3 4 5 19 19
22 22 21 23 22 19 17 12 8 4 3 6 9 7 8 6 4 3 3 0 3 1 2 3 3 3 2 2 4 3 9 11 5 1 4 3 3 5 1 1 3 11 11 14
21 22 20 21 21 17 16 14 12 2 3 6 13 8 9 5 5 2 2 2 2 4 2 2 4 3 1 2 3 4 4 2 6 5 5 7 3 4 2 5 6 17 15 2
20 19 18 19 19 17 15 11 12 11 5 10 9 14 7 5 6 3 5 3 2 2 2 3 3 3 2 2 2 4 7 6 5 4 4 4 3 2 3 4 9 7 6 6
19 21 19 18 16 15 11 11 13 15 8 6 7 8 11 13 9 10 8 0 3 5 3 2 2 3 3 2 2 3 4 5 2 5 3 2 3 9 8 8 8 3 2 9
20 19 20 19 18 16 10 12 13 10 6 9 6 9 10 11 10 10 4 4 6 5 4 1 2 4 2 3 4 2 5 5 3 2 3 5 6 5 6 9 4 2 6 13
20 20 21 18 18 17 14 12 8 8 6 4 2 7 9 13 15 14 14 9 6 6 6 4 2 3 2 2 2 3 1 6 5 5 8 10 6 5 4 4 5 10 14 15
21 21 22 18 18 17 16 13 11 12 7 3 4 4 8 10 12 14 15 15 12 5 3 3 3 3 1 2 1 5 6 5 3 2 1 3 3 1 3 7 9 13 19 22
23 23 23 21 20 15 11 2 5 7 9 3 2 2 2 5 7 8 9 11 9 5 3 3 4 8 3 3 4 6 15 11 8 2 0 1 1 5 6 11 12 16 21 22
25 27 26 24 17 13 11 3 12 12 10 3 2 2 1 2 3 3 5 8 6 6 3 4 4 3 5 3 7 4 7 10 11 11 5 2 7 4 10 13 18 20 24 25
30 29 18 5 2 7 11 13 9 6 5 4 1 0 1 6 3 3 6 5 5 6 4 4 2 2 3 5 12 18 15 11 10 12 11 4 9 13 16 18 22 25 26 26
26 10 5 7 4 3 3 9 8 7 5 4 1 2 2 6 3 3 4 2 2 2 2 2 2 3 6 10 12 10 11 9 7 13 11 8 12 18 21 23 26 28 28 27
10 4 3 3 0 3 4 6 4 6 6 5 2 3 1 4 2 1 1 1 1 2 1 4 3 4 20 24 18 14 9 8 11 14 11 14 18 23 25 27 27 28 29 28
9 8 5 6 4 4 4 3 6 6 3 5 3 7 3 7 3 3 1 1 0 2 0 2 2 4 3 5 11 20 25 16 10 15 13 17 18 28 30 29 28 31 31 29
6 6 6 5 3 1 1 1 2 2 2 3 2 2 4 3 3 1 1 1 1 3 3 2 3 4 7 9 8 8 13 17 13 13 6 12 16 26 31 33 30 30 28 28
1 2 2 3 2 2 3 5 2 1 4 5 1 1 4 4 3 2 2 3 3 0 1 4 5 6 12 8 7 4 12 16 13 13 8 13 18 26 29 31 30 30 28 26
3 3 3 2 3 3 3 2 3 5 4 9 3 1 1 1 2 1 2 1 0 2 3 6 3 6 8 8 5 3 12 15 15 14 12 15 20 28 29 30 33 31 30 27
1 0 2 2 2 2 2 5 6 5 9 11 2 2 3 1 1 2 2 2 4 5 5 3 5 6 7 3 3 5 12 16 16 15 15 19 24 29 31 32 32 29 27 27
2 2 2 2 1 1 3 5 6 9 14 4 4 1 2 4 2 3 6 3 5 3 3 6 6 5 4 2 2 5 12 15 15 15 17 21 28 32 34 34 32 30 28 28
2 2 4 2 3 4 2 5 3 12 8 1 1 3 1 1 1 3 4 4 3 12 18 11 8 6 4 2 2 5 12 16 17 18 21 26 30 33 35 36 33 30 28 26
Wind_Direction
351 351 351 346 348 348 347 337 215 169 161 122 193 132 160 112 152 132 101 101 106 155 160 173 191 208 240 187 155 187 198 223 240 237 245 228 235 239 226 233 228 229 268 265
351 354 355 350 348 350 341 317 58 153 188 142 120 136 172 116 165 97 104 106 108 159 163 158 194 198 226 180 186 177 174 211 283 258 192 217 236 240 233 239 255 247 262 267
353 356 356 356 354 353 348 212 133 105 118 117 122 141 110 116 49 65 73 105 98 125 152 125 179 215 219 199 205 176 175 220 232 259 281 315 244 250 228 216 237 256 242 265
357 357 3 2 4 12 12 306 81 83 146 169 143 111 112 131 113 75 103 110 154 154 145 169 215 210 199 197 205 191 212 244 242 259 270 275 269 266 241 221 231 241 261 267
358 0 7 5 8 15 20 11 3 39 93 149 144 69 136 146 111 122 148 146 165 194 177 198 199 195 213 215 197 200 217 275 282 279 268 263 269 262 247 235 236 246 260 269
1 1 9 10 13 15 11 360 12 334 97 147 171 150 165 140 117 65 76 177 134 217 239 258 262 228 238 247 214 201 198 214 300 271 315 309 272 260 252 234 240 243 249 249
0 2 8 10 15 15 14 8 346 348 95 163 150 160 130 175 177 107 151 186 168 189 228 268 264 248 243 242 231 215 189 158 221 290 310 287 319 217 247 256 252 241 248 256
1 2 7 11 11 16 24 26 7 350 116 201 211 210 180 107 93 103 149 173 213 278 280 265 261 205 220 230 223 226 225 231 268 277 298 278 324 352 309 264 328 297 251 256
358 358 5 6 6 12 18 11 12 357 330 213 196 174 186 196 206 167 158 135 297 219 216 218 250 237 207 160 151 20 215 223 218 304 295 309 337 340 357 167 2 354 325 247
356 357 1 353 360 5 12 4 352 336 288 278 207 187 182 179 147 80 114 188 209 213 222 254 246 234 292 207 211 165 133 166 228 236 260 277 271 294 245 343 330 348 347 113
350 346 343 342 349 357 359 352 342 0 287 279 207 210 179 149 158 166 145 167 180 152 231 240 235 233 206 252 200 182 191 187 210 205 242 288 178 235 315 343 325 328 19 117
348 343 345 343 343 344 340 328 333 324 266 268 244 215 211 214 240 204 179 135 145 197 243 201 312 238 207 239 260 182 224 228 280 228 259 358 257 266 286 307 297 308 148 169
341 344 338 329 328 331 325 310 320 316 304 296 253 220 215 212 203 188 168 214 207 205 208 284 231 262 271 216 234 254 219 202 248 285 205 256 271 284 300 325 315 197 170 161
328 332 334 330 325 323 317 297 284 297 278 277 287 235 229 224 225 231 236 233 208 214 198 221 235 262 236 232 306 256 345 165 219 250 283 289 271 280 320 20 86 121 138 146
320 322 321 323 313 308 305 291 262 240 223 308 300 288 233 229 229 229 234 238 233 204 224 217 233 235 180 212 278 239 195 219 223 287 124 289 4 72 98 110 121 131 138 135
317 316 314 314 303 293 301 251 174 153 204 265 251 260 235 211 213 213 220 221 223 214 218 242 238 245 218 245 244 243 214 225 233 277 175 234 204 136 128 129 134 137 134 136
319 315 312 305 288 248 217 215 156 177 186 238 273 336 224 207 179 195 202 197 218 213 246 227 244 286 195 249 248 253 233 237 238 236 216 184 173 177 154 148 144 141 134 133
323 317 316 315 250 200 229 238 243 206 218 247 231 238 251 184 191 208 194 200 204 215 237 233 243 190 220 256 240 245 250 240 232 218 209 192 178 164 156 155 151 144 137 137
333 352 76 98 87 112 172 184 217 199 259 298 165 170 194 180 239 196 181 207 244 224 242 243 227 203 227 238 249 249 237 221 223 198 193 185 175 169 163 161 159 152 147 150
1 67 76 80 114 250 181 156 188 201 207 225 236 154 157 192 172 158 136 171 284 263 256 304 231 253 251 258 254 259 258 278 217 174 170 179 179 177 171 169 165 162 156 153
19 26 16 20 108 155 191 188 193 195 192 190 207 190 172 208 173 194 212 223 278 259 73 284 273 262 244 281 273 260 255 257 237 218 242 225 205 181 172 171 171 166 160 157
343 337 338 8 360 354 63 264 303 187 172 175 178 219 205 202 198 144 167 219 197 254 345 280 259 255 266 319 299 289 225 222 232 214 227 198 197 186 179 175 171 165 162 160
33 31 320 12 351 71 42 359 350 69 6 16 53 181 193 179 195 94 158 208 239 34 255 248 245 282 303 320 317 286 187 189 202 197 201 187 185 185 182 173 171 167 164 161
77 22 36 53 11 48 36 347 314 312 302 339 319 267 209 191 135 132 212 186 266 252 243 242 251 273 309 314 291 227 186 182 186 190 190 183 180 176 176 176 171 170 166 162
93 7 123 110 62 239 305 327 316 343 338 332 241 253 222 164 150 200 109 191 241 229 234 237 265 304 320 322 262 214 193 186 183 184 184 179 176 173 171 173 171 171 167 164
151 128 160 206 50 307 2 5 326 358 341 327 228 215 176 229 170 170 211 200 230 257 235 275 300 310 318 317 258 207 194 191 188 185 181 178 175 175 172 169 170 171 171 166
176 198 197 236 262 230 259 334 321 329 327 292 312 213 198 61 219 244 189 217 318 331 327 313 305 309 308 288 239 204 191 191 193 187 180 179 176 174 171 168 168 169 166 165
Height
1441 1434 1429 1422 1417 1412 1406 1402 1401 1403 1406 1412 1415 1411 1414 1412 1415 1414 1414 1418 1420 1425 1431 1436 1439 1440 1442 1446 1450 1454 1455 1457 1456 1447 1440 1444 1442 1442 1445 1447 1438 1433 1422 1392
1440 1433 1426 1420 1414 1409 1403 1403 1402 1405 1406 1404 1408 1413 1413 1413 1415 1414 1414 1419 1421 1427 1430 1436 1436 1440 1442 1445 1446 1447 1452 1457 1451 1434 1441 1441 1441 1431 1432 1440 1439 1425 1423 1386
1440 1433 1426 1420 1412 1403 1400 1397 1399 1405 1406 1406 1407 1407 1411 1411 1413 1415 1416 1421 1423 1426 1430 1434 1437 1440 1441 1442 1444 1447 1448 1444 1444 1430 1424 1428 1436 1427 1431 1433 1424 1406 1402 1388
1440 1434 1426 1421 1413 1402 1398 1399 1400 1402 1405 1407 1405 1408 1410 1412 1414 1417 1418 1423 1422 1424 1428 1432 1435 1438 1439 1441 1442 1445 1446 1444 1442 1434 1430 1428 1424 1419 1419 1420 1409 1410 1381 1385
1440 1435 1429 1422 1416 1409 1404 1403 1402 1404 1406 1409 1407 1410 1412 1413 1416 1417 1420 1419 1423 1425 1425 1428 1429 1433 1436 1433 1438 1441 1441 1438 1438 1430 1423 1416 1413 1407 1406 1406 1404 1396 1393 1385
1441 1436 1431 1425 1420 1415 1413 1410 1408 1410 1413 1412 1410 1412 1414 1414 1414 1421 1422 1423 1424 1426 1428 1429 1431 1432 1432 1433 1433 1436 1440 1440 1438 1418 1408 1403 1401 1397 1396 1396 1395 1392 1389 1374
1442 1437 1433 1429 1424 1421 1419 1417 1415 1411 1412 1412 1411 1413 1414 1415 1417 1419 1423 1425 1426 1429 1429 1429 1429 1429 1429 1429 1429 1431 1433 1439 1440 1423 1414 1397 1388 1391 1390 1389 1384 1383 1378 1376
1443 1438 1434 1430 1426 1424 1421 1419 1417 1415 1414 1414 1415 1415 1417 1419 1420 1421 1424 1425 1427 1427 1429 1429 1425 1424 1425 1419 1422 1425 1427 1432 1428 1421 1411 1392 1383 1388 1388 1386 1375 1373 1371 1372
1443 1439 1435 1432 1429 1425 1423 1421 1419 1418 1417 1414 1415 1415 1417 1418 1420 1422 1424 1425 1426 1427 1427 1426 1421 1411 1410 1412 1417 1422 1422 1426 1428 1422 1415 1393 1384 1386 1387 1385 1372 1372 1369 1368
1443 1438 1435 1431 1428 1426 1424 1423 1421 1419 1417 1411 1412 1413 1415 1416 1418 1421 1423 1424 1424 1426 1424 1422 1419 1412 1412 1407 1407 1416 1422 1426 1422 1419 1414 1392 1384 1385 1386 1375 1380 1374 1371 1368
1441 1438 1434 1430 1426 1424 1423 1422 1420 1420 1417 1410 1410 1412 1412 1414 1415 1416 1422 1424 1424 1425 1425 1422 1416 1415 1409 1409 1405 1405 1405 1411 1414 1408 1406 1394 1384 1384 1380 1378 1377 1377 1375 1372
1439 1436 1433 1430 1429 1426 1424 1422 1420 1418 1416 1411 1409 1410 1411 1412 1414 1416 1418 1419 1419 1421 1421 1419 1417 1413 1410 1405 1398 1405 1404 1399 1394 1395 1383 1381 1381 1379 1378 1377 1377 1376 1375 1375
1435 1434 1431 1428 1425 1424 1422 1419 1417 1415 1413 1409 1407 1408 1409 1410 1412 1414 1417 1418 1418 1418 1418 1417 1415 1412 1410 1401 1398 1398 1398 1399 1395 1393 1381 1380 1378 1377 1376 1374 1374 1373 1374 1375
1432 1429 1427 1424 1421 1419 1418 1415 1416 1416 1415 1413 1405 1405 1406 1408 1410 1412 1414 1414 1415 1416 1416 1415 1413 1410 1407 1400 1400 1398 1393 1397 1390 1387 1380 1378 1377 1377 1376 1375 1374 1374 1375 1377
1428 1424 1422 1419 1417 1414 1412 1410 1410 1412 1416 1411 1405 1404 1404 1405 1407 1408 1410 1411 1413 1414 1414 1411 1409 1405 1408 1402 1402 1392 1390 1384 1382 1377 1380 1379 1378 1378 1377 1377 1378 1378 1377 1379
1422 1419 1415 1413 1411 1411 1411 1409 1408 1408 1410 1411 1405 1404 1403 1404 1405 1406 1407 1409 1410 1411 1409 1407 1403 1403 1403 1394 1386 1378 1378 1377 1378 1378 1378 1378 1378 1378 1378 1379 1381 1382 1381 1385
1415 1411 1407 1404 1402 1404 1406 1406 1404 1406 1408 1408 1404 1403 1403 1403 1405 1406 1406 1407 1409 1408 1406 1404 1402 1399 1398 1393 1381 1374 1373 1374 1376 1376 1377 1378 1378 1378 1379 1381 1384 1386 1386 1389
1407 1401 1396 1395 1396 1398 1401 1402 1403 1404 1405 1406 1403 1403 1404 1404 1404 1404 1404 1405 1405 1403 1402 1400 1397 1396 1395 1384 1370 1370 1371 1372 1372 1373 1375 1376 1376 1378 1380 1383 1386 1388 1390 1393
1399 1394 1394 1395 1397 1399 1400 1401 1402 1403 1408 1402 1401 1401 1401 1403 1402 1402 1402 1402 1400 1401 1398 1396 1396 1388 1384 1366 1364 1364 1365 1366 1367 1370 1372 1374 1376 1378 1380 1383 1387 1389 1392 1396
1397 1395 1395 1396 1397 1398 1398 1401 1401 1402 1401 1401 1399 1399 1400 1402 1401 1401 1402 1402 1401 1400 1397 1395 1390 1378 1368 1362 1362 1363 1363 1364 1365 1367 1370 1372 1374 1376 1379 1383 1388 1391 1393 1398
1398 1397 1398 1397 1396 1396 1396 1396 1397 1397 1396 1396 1397 1397 1398 1400 1400 1399 1402 1401 1403 1399 1397 1394 1384 1370 1360 1358 1357 1357 1359 1362 1363 1365 1367 1368 1370 1372 1376 1382 1387 1390 1395 1400
1401 1400 1399 1398 1397 1396 1396 1395 1394 1393 1393 1394 1396 1397 1398 1399 1399 1399 1402 1402 1403 1396 1399 1396 1382 1361 1357 1356 1354 1353 1353 1357 1361 1363 1365 1366 1368 1372 1376 1380 1387 1393 1397 1401
1400 1401 1400 1399 1399 1397 1396 1397 1393 1392 1395 1396 1396 1397 1397 1399 1399 1399 1401 1400 1398 1399 1397 1387 1369 1358 1356 1354 1353 1351 1352 1355 1358 1361 1363 1365 1367 1372 1377 1382 1389 1394 1398 1402
1400 1401 1402 1402 1401 1402 1402 1403 1402 1401 1399 1398 1397 1396 1397 1397 1398 1399 1399 1398 1399 1397 1394 1378 1363 1357 1355 1353 1353 1352 1353 1355 1357 1360 1362 1365 1368 1372 1378 1384 1388 1393 1398 1402
1401 1402 1402 1402 1405 1404 1404 1403 1402 1400 1398 1397 1396 1396 1397 1397 1398 1398 1398 1398 1395 1387 1373 1364 1358 1357 1355 1353 1353 1353 1354 1356 1358 1360 1362 1365 1369 1373 1378 1385 1390 1396 1400 1403
1401 1402 1402 1401 1402 1402 1402 1402 1401 1400 1397 1395 1396 1395 1395 1392 1393 1395 1391 1392 1383 1369 1366 1360 1358 1357 1355 1354 1353 1353 1355 1357 1359 1361 1363 1366 1369 1374 1378 1385 1391 1396 1400 1404
1401 1400 1399 1400 1401 1401 1400 1400 1401 1400 1397 1394 1393 1391 1387 1394 1391 1391 1385 1382 1375 1373 1367 1363 1361 1358 1356 1355 1354 1354 1355 1356 1358 1360 1363 1367 1370 1375 1380 1385 1391 1397 1402 1407